Vorticity
3 3 3 3 3 3 2 2 2 3 3 2 3 3 3 3 3 3 3 3 2 2 2 1 1 1 1 1 1 1 1 1 1 1 1 1 1 0 1 1 1 2 2 2 2 1 0 1 2 1 1 2
4 4 3 3 3 3 3 3 3 3 3 3 3 3 3 2 2 3 3 3 3 3 3 3 3 2 2 2 2 1 1 2 1 1 1 1 1 1 0 -0 1 2 1 1 1 2 1 1 2 1 1 1
6 6 5 4 4 4 4 4 3 3 3 3 4 4 4 3 3 3 3 3 3 3 4 4 4 4 3 3 3 2 2 2 2 2 1 1 1 1 1 1 1 1 1 1 1 2 2 1 1 1 1 1
6 7 8 8 8 6 6 5 5 5 3 3 3 4 4 4 4 3 3 3 3 3 3 3 3 4 4 4 4 4 3 3 2 2 2 2 2 2 2 2 2 2 1 0 1 1 1 2 1 1 1 1
3 3 4 5 6 6 6 6 7 6 6 5 4 4 4 4 4 4 4 4 3 3 3 2 3 4 4 4 3 4 4 4 4 3 3 3 2 2 2 2 2 2 2 1 1 1 1 1 1 1 1 1
3 2 3 3 4 4 5 5 6 7 7 6 6 6 5 4 4 4 4 4 4 4 3 3 3 3 3 3 3 3 4 4 4 4 4 4 3 3 2 3 3 2 3 2 2 2 2 2 2 2 1 1
5 5 5 5 5 4 3 4 5 5 5 5 5 6 6 6 5 5 4 4 4 4 4 4 3 3 3 3 3 3 3 4 4 4 4 4 4 4 3 4 3 3 4 3 3 3 3 3 3 2 2 3
8 7 6 6 6 5 5 4 4 4 4 4 5 5 5 5 5 5 4 5 5 5 4 4 4 4 3 3 3 3 3 4 4 4 4 4 5 5 4 4 4 4 5 5 4 4 4 4 4 4 4 4
8 6 6 7 7 6 6 6 5 5 4 5 6 6 6 6 5 5 5 5 6 6 5 5 5 5 5 5 5 5 4 4 4 4 4 4 4 5 5 5 5 5 5 5 5 5 5 4 5 5 5 5
13 11 10 8 7 7 7 7 7 7 7 8 7 7 5 5 6 6 6 6 6 6 6 6 5 5 5 5 6 6 6 5 5 5 5 4 4 5 5 5 6 5 5 5 5 5 5 5 5 5 5 5
13 16 15 12 9 8 8 8 8 8 9 8 7 8 7 6 6 6 6 6 6 6 6 6 6 6 6 5 5 6 6 6 6 6 6 6 5 6 5 5 5 5 5 6 5 6 6 6 6 6 6 6
9 11 14 16 14 13 11 7 6 6 6 5 6 7 7 8 7 6 6 6 6 6 6 6 6 6 6 5 5 6 6 6 6 6 6 7 7 6 6 6 6 6 6 6 6 6 6 6 6 6 6 7
7 8 10 13 15 18 16 12 10 6 3 4 4 5 6 7 7 7 7 6 6 6 7 7 7 7 7 6 6 6 7 7 6 6 7 7 7 7 7 7 7 7 6 6 6 6 6 6 6 6 7 7
12 11 11 10 10 13 15 17 17 14 11 8 6 5 5 4 5 6 6 6 6 6 7 7 7 7 7 7 7 7 7 7 8 8 8 8 8 9 9 8 8 8 8 8 7 7 7 7 7 7 7 7
13 13 14 13 12 11 12 15 17 19 18 15 13 12 9 7 6 6 7 7 7 7 7 6 6 6 6 7 7 8 7 7 8 8 9 9 10 10 10 10 11 10 9 9 9 9 9 8 8 8 7 7
9 10 11 11 12 11 11 13 14 16 17 17 18 16 15 13 10 9 9 8 8 8 7 6 6 6 7 8 8 8 8 7 8 9 10 10 10 10 10 10 10 10 10 10 10 9 9 9 9 8 8 8
8 7 7 8 8 8 9 9 10 11 13 14 16 17 17 16 13 12 11 9 9 8 7 6 6 6 7 7 7 7 7 8 8 9 9 9 9 9 9 9 9 9 10 10 10 10 9 9 8 8 9 9
6 5 5 6 6 6 6 6 7 7 7 8 10 12 14 15 16 17 16 14 13 10 7 7 7 8 8 8 7 7 7 9 9 9 9 8 8 8 8 8 8 9 10 10 9 10 9 9 9 9 9 9
4 4 4 4 5 5 4 5 5 5 5 5 5 6 8 9 11 14 15 15 16 14 11 11 14 15 13 12 10 9 9 9 9 9 9 9 8 8 8 8 8 8 7 8 8 8 9 10 10 11 10 10
5 5 4 4 4 5 4 4 4 6 6 4 4 4 4 5 6 9 11 12 13 12 10 11 14 16 16 15 14 12 12 11 12 12 11 10 10 10 10 10 9 9 8 9 9 9 9 10 11 12 11 10
6 6 5 5 6 6 6 6 5 5 6 5 5 5 5 6 6 7 7 8 9 8 8 9 10 12 15 16 16 16 16 17 16 14 14 14 14 15 14 14 13 12 12 12 11 12 12 12 12 12 11 12
8 7 6 6 7 7 7 8 7 5 5 5 5 4 5 5 7 7 6 7 6 5 5 5 7 9 11 12 12 14 16 17 16 14 14 15 15 15 14 14 15 14 14 14 14 14 14 14 14 13 12 13
9 8 6 6 8 10 9 8 9 7 5 6 7 7 6 6 7 7 6 7 5 5 5 5 4 5 6 7 8 10 12 14 14 14 14 15 15 14 15 16 17 17 16 16 16 16 17 17 16 15 14 13
8 10 11 11 13 14 13 12 11 9 6 7 8 8 7 6 7 7 6 6 4 3 4 3 3 5 5 5 6 5 5 9 14 16 15 14 14 13 13 13 13 14 13 13 12 13 14 14 16 16 15 15
4 9 12 10 10 10 11 13 14 11 9 10 13 13 10 8 7 6 5 5 4 5 5 3 1 3 4 3 5 3 4 10 14 14 11 9 9 8 7 8 8 8 8 6 6 7 7 8 11 11 11 11
1 3 6 5 7 8 6 6 7 6 5 7 12 13 10 11 12 10 9 7 5 4 2 1 -1 1 4 3 5 8 11 13 12 10 8 6 5 4 4 6 7 6 5 4 4 4 4 4 5 5 5 6
6 3 4 5 8 9 7 5 3 2 1 2 8 10 9 12 14 12 12 12 10 8 6 4 2 3 6 4 2 5 7 7 7 6 6 4 3 3 3 7 9 7 7 7 6 6 5 4 4 4 4 5
9 7 6 6 6 7 7 7 5 5 5 6 8 11 14 15 11 6 6 7 7 8 8 3 -2 -0 5 5 -0 -1 4 9 10 9 7 5 4 4 4 7 9 7 7 8 8 8 7 7 6 5 5 4
8 8 5 4 5 6 7 7 6 5 6 8 8 5 5 7 8 8 12 17 15 13 13 5 -7 -8 1 4 -2 0 10 15 14 13 12 12 11 9 7 9 10 7 5 5 4 6 8 8 7 6 5 5
13 10 7 8 11 10 8 6 6 7 6 6 7 5 2 -1 -2 -3 -3 -0 -2 -0 9 9 -4 -9 -2 2 -2 3 11 13 14 14 13 11 10 9 6 7 10 8 8 8 5 3 5 7 8 7 5 4
10 13 15 15 11 6 3 2 2 4 5 3 3 6 5 2 -0 -3 -5 -8 -11 -10 -6 -6 -9 -7 -1 1 1 5 9 9 11 10 7 8 10 10 9 9 9 6 7 10 9 6 5 5 5 7 5 4
Height
5733 5733 5732 5733 5733 5733 5733 5733 5733 5732 5732 5732 5732 5732 5732 5732 5731 5731 5731 5731 5731 5730 5730 5730 5730 5731 5731 5731 5731 5732 5732 5732 5733 5733 5733 5734 5734 5735 5736 5736 5736 5737 5737 5737 5736 5735 5735 5736 5736 5737 5737 5738
5728 5728 5728 5728 5728 5728 5728 5728 5728 5727 5727 5727 5727 5727 5727 5727 5726 5726 5726 5726 5726 5725 5725 5725 5725 5726 5726 5726 5726 5726 5727 5727 5728 5728 5728 5729 5729 5730 5730 5731 5731 5732 5732 5732 5732 5731 5731 5731 5732 5732 5733 5733
5723 5723 5723 5723 5722 5722 5722 5722 5722 5722 5722 5721 5721 5721 5721 5721 5721 5721 5721 5720 5720 5720 5720 5720 5720 5720 5720 5721 5721 5721 5721 5722 5722 5722 5723 5723 5723 5724 5724 5725 5726 5726 5726 5726 5726 5727 5727 5727 5727 5727 5728 5728
5717 5717 5717 5717 5716 5716 5716 5716 5716 5716 5715 5715 5715 5715 5715 5715 5715 5715 5714 5714 5714 5714 5714 5714 5714 5714 5715 5715 5715 5715 5715 5716 5716 5716 5717 5717 5717 5718 5718 5719 5720 5720 5720 5720 5721 5721 5722 5722 5722 5722 5723 5723
5710 5710 5710 5709 5709 5709 5709 5709 5709 5709 5709 5709 5708 5708 5708 5708 5708 5708 5708 5707 5708 5708 5708 5708 5708 5708 5708 5708 5708 5709 5709 5709 5709 5710 5710 5711 5711 5712 5712 5713 5714 5714 5714 5714 5715 5715 5716 5716 5716 5717 5717 5718
5703 5703 5703 5702 5702 5702 5702 5702 5701 5702 5702 5701 5701 5701 5701 5701 5701 5701 5700 5700 5700 5700 5700 5701 5701 5701 5701 5701 5702 5702 5702 5702 5703 5703 5704 5704 5705 5705 5706 5707 5707 5707 5708 5708 5708 5709 5710 5710 5711 5711 5712 5712
5697 5696 5696 5695 5695 5695 5694 5694 5694 5694 5694 5694 5693 5693 5693 5693 5693 5693 5693 5693 5693 5693 5693 5693 5693 5694 5694 5694 5694 5694 5695 5695 5696 5696 5697 5697 5698 5698 5699 5700 5700 5700 5701 5701 5702 5702 5703 5704 5704 5705 5705 5706
5690 5689 5689 5688 5688 5687 5687 5687 5686 5686 5686 5685 5685 5685 5685 5685 5685 5685 5685 5685 5685 5685 5685 5685 5686 5686 5686 5686 5687 5687 5688 5688 5689 5689 5689 5690 5690 5691 5692 5692 5693 5693 5694 5694 5695 5695 5696 5697 5697 5698 5699 5699
5684 5683 5682 5681 5680 5680 5680 5679 5679 5678 5678 5678 5678 5678 5677 5677 5677 5677 5677 5677 5677 5677 5677 5678 5678 5678 5678 5679 5679 5680 5681 5681 5682 5682 5682 5683 5683 5683 5684 5685 5685 5686 5687 5687 5688 5688 5689 5690 5690 5691 5691 5692
5679 5678 5676 5675 5674 5673 5673 5672 5671 5671 5670 5670 5670 5670 5670 5669 5669 5669 5669 5669 5669 5669 5669 5670 5670 5670 5671 5671 5672 5672 5673 5674 5675 5675 5675 5675 5676 5676 5677 5678 5678 5678 5679 5680 5680 5681 5681 5682 5683 5683 5684 5684
5672 5671 5670 5668 5667 5666 5665 5664 5664 5663 5662 5662 5662 5662 5662 5661 5661 5661 5661 5661 5661 5661 5661 5662 5662 5663 5663 5664 5665 5665 5666 5667 5667 5667 5668 5668 5668 5668 5669 5670 5670 5671 5671 5672 5672 5673 5674 5674 5675 5675 5676 5677
5664 5663 5662 5662 5660 5659 5658 5657 5657 5656 5654 5655 5655 5654 5654 5653 5653 5653 5653 5653 5652 5653 5653 5654 5654 5654 5655 5656 5657 5658 5658 5659 5659 5659 5660 5660 5660 5661 5661 5662 5662 5663 5663 5664 5665 5665 5666 5666 5667 5668 5668 5669
5656 5655 5654 5654 5653 5652 5650 5649 5649 5647 5646 5647 5646 5646 5645 5645 5644 5644 5644 5644 5644 5645 5645 5646 5646 5646 5647 5648 5649 5650 5650 5650 5651 5652 5652 5652 5652 5653 5653 5654 5654 5655 5656 5656 5657 5657 5658 5659 5659 5660 5661 5661
5648 5647 5646 5646 5645 5644 5643 5642 5641 5639 5639 5639 5638 5637 5637 5636 5636 5636 5636 5636 5637 5637 5637 5637 5638 5638 5639 5640 5641 5641 5641 5642 5642 5643 5644 5645 5645 5645 5645 5646 5647 5647 5648 5648 5649 5650 5650 5651 5651 5652 5653 5653
5641 5640 5639 5638 5636 5636 5635 5634 5633 5632 5632 5631 5630 5630 5628 5628 5628 5628 5628 5628 5629 5629 5629 5629 5630 5631 5631 5632 5632 5632 5633 5634 5635 5636 5637 5637 5637 5637 5638 5638 5639 5639 5640 5641 5641 5641 5642 5643 5644 5644 5645 5646
5634 5632 5631 5630 5629 5628 5627 5626 5625 5625 5624 5623 5623 5622 5621 5621 5620 5620 5620 5620 5620 5620 5620 5621 5622 5623 5624 5624 5624 5624 5625 5626 5627 5628 5629 5629 5629 5630 5630 5630 5631 5631 5632 5633 5633 5634 5635 5635 5636 5637 5637 5638
5626 5625 5624 5623 5621 5620 5619 5618 5617 5616 5616 5615 5615 5614 5614 5613 5613 5613 5612 5612 5612 5611 5611 5612 5613 5615 5616 5616 5616 5616 5617 5618 5619 5620 5621 5621 5621 5622 5622 5623 5623 5623 5624 5625 5625 5627 5627 5628 5629 5629 5630 5630
5619 5617 5616 5615 5614 5612 5611 5610 5609 5608 5608 5607 5607 5606 5606 5606 5606 5605 5604 5604 5603 5603 5603 5604 5605 5606 5607 5607 5607 5608 5609 5611 5612 5613 5613 5614 5614 5614 5614 5615 5615 5615 5616 5617 5618 5619 5620 5621 5621 5621 5622 5622
5611 5609 5608 5607 5606 5605 5604 5602 5601 5600 5599 5599 5598 5598 5598 5598 5598 5597 5596 5596 5595 5595 5595 5596 5597 5598 5599 5599 5599 5600 5602 5603 5604 5605 5606 5606 5606 5606 5606 5607 5607 5607 5608 5609 5610 5611 5611 5612 5613 5613 5613 5614
5602 5601 5600 5598 5597 5596 5595 5594 5593 5592 5591 5591 5590 5589 5590 5590 5590 5590 5589 5588 5588 5587 5587 5588 5589 5590 5590 5591 5591 5592 5594 5596 5596 5597 5597 5598 5598 5598 5599 5599 5599 5599 5600 5601 5601 5602 5603 5604 5605 5605 5605 5606
5593 5592 5591 5590 5589 5588 5587 5586 5585 5584 5583 5582 5582 5581 5581 5581 5582 5581 5581 5581 5580 5580 5580 5580 5581 5582 5583 5583 5582 5584 5586 5588 5589 5589 5589 5590 5590 5590 5591 5590 5591 5591 5591 5592 5592 5594 5595 5596 5597 5597 5597 5598
5585 5583 5582 5581 5580 5579 5578 5577 5576 5575 5574 5574 5573 5573 5573 5573 5573 5573 5572 5572 5572 5572 5572 5573 5573 5574 5575 5575 5574 5575 5578 5579 5580 5581 5581 5582 5582 5582 5582 5582 5582 5583 5583 5583 5584 5586 5587 5588 5588 5589 5589 5590
5576 5574 5573 5572 5571 5570 5568 5567 5567 5566 5565 5565 5564 5564 5564 5564 5564 5564 5564 5564 5563 5564 5564 5565 5565 5566 5568 5567 5566 5567 5569 5571 5572 5573 5573 5573 5573 5573 5573 5575 5575 5575 5575 5575 5576 5577 5579 5580 5580 5581 5581 5582
5566 5565 5564 5563 5561 5560 5559 5558 5557 5557 5556 5556 5556 5555 5555 5555 5555 5555 5555 5555 5555 5555 5556 5556 5557 5558 5559 5559 5559 5560 5561 5563 5564 5565 5564 5564 5565 5565 5566 5568 5568 5568 5568 5567 5568 5570 5571 5572 5572 5573 5574 5575
5555 5554 5554 5553 5552 5551 5550 5549 5548 5547 5547 5547 5547 5546 5546 5546 5546 5546 5546 5546 5546 5547 5547 5548 5548 5550 5551 5552 5551 5552 5554 5555 5556 5556 5556 5556 5558 5559 5559 5560 5561 5561 5560 5560 5562 5563 5563 5564 5565 5566 5567 5569
5545 5544 5543 5543 5543 5542 5541 5540 5539 5538 5538 5538 5538 5538 5537 5537 5537 5537 5537 5537 5537 5538 5538 5539 5540 5541 5543 5544 5544 5545 5546 5547 5548 5549 5549 5549 5551 5551 5552 5552 5553 5554 5553 5553 5555 5555 5555 5557 5558 5559 5561 5562
5533 5532 5531 5531 5531 5532 5531 5530 5530 5529 5529 5529 5529 5528 5528 5527 5527 5528 5528 5528 5528 5529 5529 5529 5531 5533 5534 5536 5536 5537 5538 5539 5540 5541 5542 5542 5543 5544 5544 5545 5547 5547 5546 5546 5547 5547 5548 5550 5550 5552 5554 5556
5520 5519 5519 5519 5519 5519 5519 5519 5520 5520 5520 5520 5520 5519 5519 5519 5519 5519 5519 5519 5519 5519 5519 5520 5521 5524 5526 5527 5528 5529 5530 5531 5532 5533 5534 5534 5534 5535 5536 5537 5539 5540 5538 5539 5540 5541 5541 5542 5543 5546 5548 5549
5507 5507 5506 5506 5506 5506 5506 5507 5508 5509 5510 5510 5511 5512 5511 5511 5511 5511 5511 5511 5511 5511 5511 5510 5512 5514 5517 5518 5519 5521 5521 5522 5523 5524 5525 5526 5526 5527 5528 5528 5530 5532 5531 5531 5533 5533 5533 5534 5537 5539 5540 5540
5493 5493 5493 5493 5494 5494 5494 5495 5495 5496 5498 5499 5500 5501 5501 5502 5502 5503 5503 5503 5503 5503 5503 5502 5503 5505 5508 5509 5511 5512 5513 5513 5515 5516 5517 5517 5517 5518 5519 5519 5521 5524 5525 5524 5525 5526 5526 5528 5529 5531 5532 5532
5477 5477 5478 5478 5480 5481 5481 5482 5483 5484 5485 5486 5487 5489 5490 5491 5491 5492 5493 5493 5494 5494 5494 5494 5495 5496 5498 5500 5502 5503 5504 5505 5506 5507 5507 5508 5508 5509 5509 5510 5513 5516 5517 5517 5518 5519 5518 5519 5521 5521 5524 5525